Location: Beccas
(43.4309°N, 0.1528°E)
Time: 10:14:22
(UTC+00:00)

Cosmos 2084 Rocket - Pass Details

Date: 15 October 2021
Orbit: 508 x 671 km, 62.8° (Epoch: 07 December)

Event Time Altitude Azimuth Distance (km) Brightness Sun altitude
Rises 17:48:26 0° 219° (SW) 2,607 7.5 -6.6°
Reaches altitude 10° 17:50:35 10° 221° (SW) 1,720 6.6 -7.0°
Maximum altitude 17:54:25 78° 307° (NW) 525 3.3 -7.7°
Drops below altitude 10° 17:58:18 10° 35° (NE) 1,743 5.5 -8.4°
Enters shadow 18:00:14 - 37° (NE) 2,534 6.3 -8.8°
